Theta_e
344 342 337 333 314 313 310 313 317 316 315 320 320 319 317 318 316 312 337 341 349 351 353 354 357 353 353 352 353 353 353 354 354 353 353 353 354 357 357 358 357 356 355 354 354 353 353 353 353
330 330 326 323 311 305 306 313 311 314 314 321 320 322 321 319 333 334 334 344 349 350 349 351 357 354 352 351 351 351 351 352 351 351 351 351 353 354 355 356 356 354 352 352 352 352 352 351 351
333 333 316 314 311 305 303 312 313 317 317 319 317 322 322 320 329 333 340 343 345 346 350 351 356 355 351 351 352 352 351 352 351 352 352 352 353 354 355 355 354 351 350 349 349 350 351 351 352
317 312 314 311 308 311 312 314 319 316 317 319 319 315 324 331 333 337 341 343 347 348 350 354 356 355 351 351 352 352 352 352 352 353 352 352 352 352 352 352 351 349 348 349 351 354 355 355 355
315 308 307 307 309 312 317 319 317 312 316 317 319 315 319 328 335 337 339 347 345 346 349 350 356 355 352 351 352 353 353 355 355 352 352 351 351 351 350 351 351 351 352 353 354 356 358 359 359
307 304 299 304 311 317 318 319 312 316 316 317 316 318 318 327 331 331 343 343 344 345 347 348 355 355 355 353 353 354 354 354 354 353 352 352 351 350 351 353 354 354 355 355 356 358 359 360 359
302 298 297 309 312 314 317 322 310 311 313 313 319 316 319 325 330 332 339 340 341 343 343 346 348 349 354 355 354 354 354 354 353 352 352 352 353 354 354 355 356 355 355 356 358 359 360 359 358
305 300 298 307 310 311 320 314 313 313 313 321 323 313 316 326 330 333 334 336 337 339 341 339 342 344 346 347 353 354 355 355 354 354 353 354 355 357 357 356 355 358 358 359 360 359 358 358 357
305 297 298 306 313 315 320 309 310 315 316 317 319 321 324 328 328 326 329 331 331 336 335 337 339 339 340 342 348 354 353 354 355 354 355 353 348 348 352 357 358 360 360 359 358 358 357 357 357
301 297 301 312 317 315 317 317 310 311 314 315 319 324 327 327 323 322 322 324 325 329 332 335 335 337 336 341 343 344 345 346 345 345 346 347 346 348 354 358 361 360 360 358 358 358 358 340 327
303 301 307 316 318 320 318 318 315 311 310 316 317 321 323 323 321 320 321 322 323 327 331 331 332 334 334 336 338 339 339 340 341 344 348 352 352 351 353 352 351 349 351 332 332 328 325 322 324
299 306 308 311 323 318 316 321 313 314 314 320 322 323 323 321 319 319 319 321 321 325 327 329 331 331 333 335 335 338 340 340 343 348 349 350 350 348 340 338 329 325 326 321 323 320 321 322 325
301 306 309 310 314 318 322 319 315 311 318 321 322 322 321 319 318 319 320 322 323 323 327 331 331 335 336 333 335 341 343 346 348 351 350 354 351 345 335 330 326 324 323 320 321 323 320 321 322
306 306 307 306 309 317 317 317 317 314 319 319 319 319 318 318 319 317 319 321 323 324 327 331 332 343 341 342 344 345 349 347 352 353 354 350 347 336 329 328 325 323 322 323 322 322 323 320 321
308 303 306 306 309 312 319 311 313 314 317 316 317 318 318 318 319 317 319 319 322 326 330 332 336 342 340 343 348 350 346 352 351 350 347 343 339 333 327 327 323 324 325 325 324 323 323 321 321
303 301 299 307 309 315 314 304 316 317 315 313 315 316 317 317 318 317 320 323 327 326 331 335 341 340 343 345 347 350 350 352 349 347 344 339 333 330 327 324 322 327 326 326 323 322 320 320 318
301 297 299 303 311 315 312 307 315 320 318 313 314 315 317 316 317 318 321 326 328 329 333 333 338 340 345 347 348 352 349 349 347 344 340 335 331 331 326 324 325 326 325 325 325 323 322 318 316
295 298 300 301 309 314 311 311 315 318 318 316 314 315 316 316 317 320 321 329 329 333 336 334 338 340 345 351 350 348 349 344 343 334 331 329 327 329 327 328 326 326 325 324 323 321 320 319 315
301 300 300 304 313 312 312 312 315 316 316 315 315 314 315 316 320 322 323 329 332 335 335 337 339 342 344 350 348 344 341 339 337 332 330 327 328 330 326 326 325 326 324 323 323 323 318 318 317
302 299 299 304 313 311 310 311 313 317 315 318 316 318 315 316 319 323 323 327 331 335 336 339 341 344 347 349 348 345 341 337 334 331 325 328 328 329 326 327 326 326 325 325 322 321 320 316 318
299 298 299 299 305 312 309 307 311 317 316 317 318 319 320 317 319 322 324 326 330 335 336 339 346 345 351 348 346 339 335 334 328 324 323 327 327 329 330 327 325 326 324 322 322 320 319 316 314
295 304 304 303 299 300 310 299 307 313 315 315 317 313 319 320 321 324 324 326 330 333 339 339 347 346 350 346 341 338 334 329 323 321 323 326 328 329 329 328 328 326 325 323 322 324 318 315 311
300 304 301 301 297 294 297 297 302 306 304 306 307 310 314 322 323 324 325 328 330 334 340 341 350 349 348 343 341 337 332 324 322 322 323 324 327 328 331 328 327 326 325 323 322 321 318 315 313
306 301 299 297 294 290 295 295 295 299 302 305 308 310 311 313 322 324 328 328 331 338 340 344 350 348 347 345 339 336 327 322 321 320 321 323 326 326 329 330 328 326 324 323 321 321 318 314 313
300 297 288 287 287 288 297 295 295 303 307 307 309 310 312 313 312 321 325 330 339 335 331 330 326 336 345 343 339 334 327 323 321 322 322 323 324 324 326 328 327 325 323 322 322 319 318 313 314
298 295 288 285 287 290 298 294 298 306 309 309 310 311 312 312 321 329 332 334 333 330 329 326 324 325 344 344 339 332 328 326 324 324 323 324 325 324 328 328 328 325 324 322 320 319 315 313 310
298 294 298 292 292 290 293 298 303 308 311 311 309 310 310 312 314 333 335 334 333 328 326 325 323 325 344 343 338 331 330 327 324 324 323 324 325 327 329 328 325 325 321 319 318 315 312 312 311
301 303 292 293 286 285 292 294 296 306 307 309 307 307 309 313 315 334 335 335 332 326 324 324 325 337 345 343 336 333 330 331 324 327 325 325 326 329 329 327 324 320 319 316 315 314 312 312 310
300 296 296 295 294 289 289 293 303 303 308 309 307 309 309 311 313 330 333 332 329 326 327 327 339 345 342 339 335 332 332 332 327 328 327 326 328 329 327 325 322 319 317 315 311 311 311 311 309
304 301 299 293 291 294 293 294 307 307 308 309 310 315 313 313 313 325 335 329 325 324 325 328 338 343 340 337 335 333 333 333 327 327 327 330 329 328 325 324 321 319 316 313 313 311 312 309 306
Wind_Speed
6 5 2 2 5 6 2 10 9 14 11 16 17 15 13 10 8 9 13 19 19 16 11 13 15 14 13 13 13 12 12 12 11 10 10 10 10 10 9 8 7 8 8 8 7 7 7 7 7
3 6 3 1 5 2 6 3 11 11 13 18 20 20 20 21 20 22 14 19 19 15 11 10 16 14 14 13 13 13 12 12 11 10 10 10 9 9 8 6 6 6 6 6 6 7 8 8 8
1 4 1 5 4 4 5 8 6 8 13 13 11 9 6 8 13 8 21 21 18 15 11 11 15 14 14 13 13 13 13 12 11 11 10 10 9 7 6 5 4 5 5 6 6 7 7 8 9
2 4 3 5 5 5 6 14 7 20 18 20 15 8 9 16 14 17 23 22 19 14 11 14 15 15 14 14 13 13 12 12 11 10 10 9 8 6 4 3 2 3 5 6 7 7 7 8 9
2 2 3 0 15 6 7 13 18 11 9 17 13 8 10 10 15 21 22 22 20 14 10 11 15 15 15 14 13 12 12 10 9 9 8 7 6 5 3 1 1 3 5 6 7 8 9 10 10
2 3 4 2 4 8 11 9 6 20 17 17 14 12 5 9 8 10 24 19 19 17 11 10 15 14 13 13 12 11 9 9 8 7 7 6 5 5 3 2 2 3 5 6 8 8 9 10 11
3 2 7 7 4 22 16 16 8 14 16 6 15 13 8 6 9 13 20 19 19 16 12 9 7 11 13 12 11 10 9 8 8 7 5 5 4 5 6 6 5 5 6 7 8 9 10 10 12
6 3 8 12 10 4 26 4 16 18 6 18 20 8 13 12 9 20 20 19 17 14 12 9 7 7 7 7 12 10 9 8 8 6 5 5 7 7 6 7 6 6 6 6 7 8 9 11 13
4 2 11 7 18 16 11 9 5 10 14 5 1 17 13 12 9 13 18 17 15 13 12 11 10 8 8 7 8 10 11 10 8 8 9 7 4 5 5 7 9 6 6 7 8 8 10 13 12
6 4 10 3 11 11 5 5 12 9 15 16 19 13 15 11 7 10 11 15 15 16 16 14 14 13 11 9 7 7 7 5 5 5 5 5 5 5 6 6 8 5 7 10 9 8 10 8 5
9 11 12 7 9 13 19 17 10 16 13 20 23 20 14 7 8 10 10 14 16 18 15 16 15 14 13 9 7 5 5 5 4 7 6 3 4 0 2 1 2 2 5 1 4 4 4 7 5
6 12 9 4 14 12 11 12 9 14 14 22 20 20 15 11 10 10 10 10 11 16 16 16 12 14 12 9 8 7 6 5 4 5 4 3 3 4 5 3 3 3 4 6 5 4 5 7 7
6 10 11 1 8 12 5 5 9 14 23 22 20 18 14 11 11 10 11 12 10 9 10 13 10 9 11 8 6 6 9 6 5 5 4 5 5 4 4 4 5 5 5 4 5 5 5 6 7
8 10 13 1 4 8 8 4 9 18 23 23 20 16 12 11 12 8 10 14 13 10 12 12 9 8 8 5 5 5 5 5 5 5 6 7 5 4 5 5 5 4 4 3 5 4 4 5 5
10 9 3 6 4 7 7 4 8 21 22 22 19 16 13 12 11 11 12 11 13 13 14 13 11 9 7 6 4 4 3 6 5 5 9 7 6 6 6 5 5 4 4 7 5 6 5 6 7
8 4 2 10 8 6 10 5 2 17 19 18 17 16 15 12 12 9 10 11 12 13 16 13 12 10 8 6 4 3 3 5 5 6 5 7 6 7 6 5 4 4 5 5 5 4 4 4 5
6 4 6 12 10 7 8 4 6 12 16 18 18 17 17 15 15 11 11 11 13 13 15 12 13 13 9 6 4 2 5 5 4 5 5 7 6 7 6 5 5 4 6 5 4 4 3 3 5
10 6 8 10 14 9 7 5 4 11 10 18 20 19 19 18 19 12 13 16 14 13 14 11 10 11 9 6 5 4 7 4 4 3 4 7 5 7 6 6 6 6 5 5 4 5 4 2 3
8 8 9 9 4 7 12 9 18 13 10 11 20 19 18 21 20 17 16 16 15 14 12 12 11 11 8 6 5 4 5 4 4 5 5 6 7 7 7 6 6 6 6 5 5 3 6 5 5
14 7 8 10 3 6 11 21 8 14 12 21 14 18 21 19 18 19 20 19 20 17 17 12 12 15 8 8 4 5 6 3 6 4 6 7 7 9 6 6 6 6 5 6 6 5 3 3 5
8 4 5 9 8 7 10 6 5 7 10 14 15 19 21 23 21 21 22 21 21 20 21 18 19 19 13 9 6 4 4 4 3 3 2 4 5 4 7 7 7 7 5 5 5 5 6 3 3
7 8 7 11 8 5 15 3 8 21 26 17 18 10 18 20 21 22 24 23 24 25 22 22 19 21 16 15 10 14 9 6 2 4 3 3 6 5 6 6 7 8 5 6 5 4 4 4 4
9 6 7 6 8 5 8 1 8 10 9 11 10 11 11 22 26 23 27 25 26 23 22 19 17 17 16 14 14 10 7 4 4 4 6 4 5 6 5 6 7 7 5 5 7 6 5 3 3
8 6 9 7 2 7 7 6 6 6 6 6 9 10 10 11 21 24 27 26 14 13 19 15 9 8 11 13 11 11 11 9 7 5 6 4 4 4 5 6 6 7 6 6 6 6 6 5 4
3 2 5 6 5 7 7 7 9 8 10 9 12 13 12 5 4 9 18 16 17 20 22 12 5 11 9 9 11 11 13 11 10 8 9 7 5 3 6 5 6 6 6 7 6 5 6 5 4
9 10 7 8 3 7 7 11 12 9 11 11 11 6 7 8 10 16 21 22 20 23 23 22 21 22 18 15 12 9 12 8 6 9 8 8 7 5 7 7 7 7 7 6 6 4 4 5 4
8 6 10 6 5 5 6 11 9 10 14 21 10 8 6 8 9 17 20 22 22 19 17 20 23 21 17 14 11 12 12 11 9 11 7 7 7 7 8 8 8 7 7 7 7 4 5 6 5
11 8 2 3 5 8 6 8 8 8 11 1 5 7 7 6 10 16 17 20 19 22 20 16 19 21 17 14 12 12 12 10 9 10 11 11 10 12 9 11 9 8 8 7 6 5 5 6 3
5 2 3 6 6 7 4 8 9 4 5 9 2 6 6 7 7 18 15 18 20 18 16 15 17 16 13 12 11 12 10 12 11 11 12 10 10 14 13 12 11 10 9 7 7 7 6 7 5
5 7 8 6 8 5 6 9 10 6 8 6 9 2 6 7 8 15 15 15 15 18 19 19 16 15 14 12 12 13 12 13 9 11 13 7 12 12 13 11 11 11 9 7 6 6 6 5 7
Wind_Direction
168 175 241 249 66 56 286 273 103 73 62 73 63 68 68 54 92 121 119 118 117 119 123 118 116 115 113 111 109 108 107 103 102 103 102 102 103 101 94 91 85 82 76 65 52 41 28 14 1
238 204 257 300 73 39 261 186 89 104 105 91 80 84 72 73 83 120 115 123 124 129 120 122 122 121 118 115 113 111 109 109 110 109 106 103 105 109 101 90 78 66 51 36 22 9 360 349 340
275 224 171 102 102 231 309 106 129 148 100 99 80 73 93 126 110 109 127 132 128 119 120 129 125 123 122 122 121 121 120 121 121 118 114 111 107 104 98 83 60 42 25 10 360 352 344 334 326
295 339 349 52 290 272 243 300 155 96 89 102 110 65 73 100 104 131 139 128 113 117 124 129 129 129 129 129 128 128 128 128 129 128 126 123 121 119 113 93 47 7 355 347 340 332 324 316 307
266 307 75 36 325 268 285 264 265 96 82 99 109 110 93 102 118 136 130 123 122 123 130 131 135 136 136 138 139 138 137 137 139 139 139 141 143 145 144 138 358 338 335 330 323 318 312 304 300
301 131 70 131 265 325 298 253 219 101 107 103 98 112 116 130 114 142 121 125 126 131 130 137 141 141 142 142 142 142 145 150 156 161 163 167 171 176 179 211 259 288 295 297 297 295 292 294 298
206 58 221 125 68 325 293 283 210 122 133 101 133 116 153 132 160 121 126 130 126 125 133 135 138 146 145 144 147 151 157 165 175 179 182 188 209 219 219 228 232 240 253 266 274 281 289 296 296
181 163 296 127 160 281 276 41 115 131 132 131 138 153 161 157 170 121 128 126 127 130 139 144 149 144 145 154 159 163 171 185 190 193 204 221 234 242 250 238 237 240 242 250 264 278 296 297 296
268 290 254 208 162 203 248 81 60 109 126 162 285 130 146 155 151 128 132 132 132 143 151 151 157 163 162 160 172 176 183 198 204 215 220 224 234 246 230 229 233 226 250 269 281 305 310 309 307
160 209 247 215 179 168 105 14 129 107 109 111 115 120 139 150 149 132 136 145 151 155 163 167 170 172 168 164 163 183 197 207 207 219 216 208 220 224 208 197 223 222 261 280 293 299 312 346 343
244 241 264 106 126 157 146 201 181 126 128 141 142 144 156 158 151 147 152 155 163 165 169 175 172 170 171 158 178 189 195 197 206 213 219 164 205 51 164 190 221 317 283 331 62 51 18 356 347
245 262 250 169 155 154 174 213 152 156 160 146 148 151 155 165 161 173 165 164 155 164 174 175 162 168 170 167 181 183 186 192 195 207 175 130 98 106 85 96 113 68 45 49 34 35 9 7 359
266 260 275 203 99 162 187 130 163 129 138 141 147 154 162 170 177 183 166 162 162 162 144 155 156 138 173 164 181 176 203 176 180 158 121 102 87 80 86 80 68 57 44 35 35 13 13 19 358
270 277 262 144 268 160 163 204 116 139 139 144 153 160 169 177 188 183 165 166 166 157 145 155 149 136 148 151 157 151 127 121 122 134 122 99 103 100 101 78 72 51 54 31 55 43 25 22 21
312 315 292 313 255 180 161 154 156 150 144 148 157 161 174 187 198 188 181 168 165 164 147 155 151 142 156 143 148 126 165 126 126 118 106 105 103 88 99 90 69 37 53 53 36 29 25 25 12
320 329 1 285 254 227 117 190 154 133 144 153 166 170 175 190 199 195 172 159 156 152 150 153 159 154 160 161 165 151 145 115 130 112 112 117 113 102 106 97 76 59 63 53 42 28 14 26 25
306 268 274 275 251 198 122 144 243 129 141 166 182 181 179 192 193 181 164 154 157 155 155 153 158 161 158 160 166 202 117 124 115 117 120 118 123 105 112 105 77 83 66 50 36 21 31 32 7
254 229 245 226 265 177 121 3 333 168 170 185 184 186 183 189 197 183 168 158 160 162 159 157 153 155 155 151 144 98 88 81 88 100 117 108 121 115 107 93 102 90 83 54 35 38 18 73 357
253 263 272 276 286 112 147 172 263 220 209 178 194 189 190 190 191 175 169 161 162 160 156 161 149 163 158 158 137 136 143 146 119 138 136 125 124 127 128 123 114 103 98 89 55 32 45 9 352
254 274 309 306 197 80 181 207 233 176 201 207 191 198 196 192 186 181 174 169 166 166 174 160 153 160 157 162 143 149 154 186 143 147 147 151 151 141 153 137 126 121 109 94 71 58 42 1 20
286 247 296 272 298 238 136 297 210 294 234 233 228 210 195 192 187 182 182 178 171 175 178 174 162 161 156 152 129 95 73 84 76 123 17 133 147 146 132 149 123 127 114 107 99 72 64 38 337
279 280 249 271 301 189 233 208 312 208 220 238 230 216 194 192 195 187 186 183 180 187 180 176 167 161 153 152 155 162 164 156 120 136 155 151 135 133 130 126 114 123 123 110 104 92 81 85 39
268 328 306 302 303 307 282 81 227 214 224 233 242 227 218 206 193 186 189 186 190 186 184 169 153 159 151 157 162 162 137 118 124 114 146 148 141 149 143 129 116 121 114 116 107 92 80 75 94
268 323 330 327 310 285 263 189 249 241 216 242 237 239 239 200 198 192 191 186 168 99 62 5 98 119 154 156 152 162 139 145 139 150 167 166 146 150 157 153 130 126 119 116 111 106 98 85 86
1 43 328 322 328 254 273 307 233 260 249 216 233 245 247 275 177 181 188 160 130 112 101 76 352 293 193 178 172 160 149 152 162 181 172 169 157 164 183 158 134 123 124 113 115 104 107 95 99
209 174 168 237 262 281 314 269 273 257 272 261 238 183 122 113 117 115 124 130 137 138 148 158 179 227 213 192 178 147 141 159 173 177 172 171 172 174 178 155 137 135 130 121 112 102 113 106 83
236 252 214 202 255 284 264 288 296 285 281 258 165 141 125 113 101 133 135 140 145 146 165 176 191 218 218 193 170 159 159 167 175 178 160 169 171 178 170 147 140 135 120 114 107 116 109 92 81
159 201 321 339 206 258 270 269 263 316 310 103 104 131 144 136 108 144 148 153 156 161 177 175 191 203 197 184 175 163 167 173 176 173 175 183 177 178 162 154 140 129 111 104 94 118 118 102 118
320 270 247 157 159 206 242 261 222 227 11 342 212 197 176 174 165 161 168 169 164 168 177 179 183 184 181 170 173 161 170 183 177 175 183 182 166 165 158 153 142 127 121 118 113 128 127 150 117
295 258 182 144 277 231 197 252 286 284 41 5 310 320 269 199 194 143 168 163 164 166 168 181 186 178 172 167 170 174 176 180 169 182 185 161 162 161 152 147 138 130 123 131 143 108 132 115 98